USA 167

Last updated on Sun Oct 06 2024 00:02:38 GMT+0000 (Coordinated Universal Time)

1 27691U 03008A 24279.44523782 .00000017 00000+0 00000+0 0 9991 2 27691 9.7173 48.6215 0001460 227.5603 137.1058 1.00272857 564
UTC large
Height (km)
Speed (km/s)
/
Latitude / Longitude
Inclination (degrees)
Orbital Period (minutes)
Azimuth
Elevation
Range (km)
Doppler Factor

Next 0 passes for location: London (51.5072 / 0.1276)

Sorry there are no passes over London.